Simultaneous Nadir Overpasses (SNOs) Predictions

Prediction of SNOs between NOAA-20 and METOP-B Satellite Orbit:

Table of predicted SNOs for the next 14.0 days since TLE Epoch: 3/16/2024
Index Date (NOAA-20) Time (NOAA-20) Lat,Lon (NOAA-20) SZA (NOAA-20 ) Date (METOP-B) Time (METOP-B) Lat,Lon (METOP-B) SZA (METOP-B ) Distance(km) Time Diff (sec)
1 03/28/2024 19:27:37 73.76,-122.19 70.60 03/28/2024 19:28:45 73.74,-119.89 70.44 71.74 68
2 03/28/2024 20:18:20 -73.69, 45.28 109.50 03/28/2024 20:19:29 -73.63, 47.20 109.67 60.41 69
3 03/28/2024 21:09:01 73.47,-146.89 70.25 03/28/2024 21:10:13 73.42,-145.96 70.13 29.92 72
4 03/28/2024 21:59:44 -73.40, 20.58 109.85 03/28/2024 22:00:57 -73.31, 21.14 109.98 20.41 73
5 03/28/2024 22:50:26 73.23,-171.72 69.95 03/28/2024 22:51:38 73.24,-171.68 69.95 2.40 72
6 03/28/2024 23:41:10 -73.21, -4.37 110.09 03/28/2024 23:42:21 -73.19, -4.47 110.11 3.69 71
7 03/29/2024 00:31:56 73.23, 162.89 69.93 03/29/2024 00:33:00 73.22, 162.93 69.90 1.70 64
8 03/29/2024 01:22:40 -73.22, -29.76 110.10 03/29/2024 01:23:42 -73.22, -29.74 110.11 0.83 62
9 03/29/2024 02:13:25 73.19, 137.61 69.86 03/29/2024 02:14:22 73.20, 137.55 69.86 2.45 57
10 03/29/2024 03:04:10 -73.23, -55.15 110.12 03/29/2024 03:05:04 -73.20, -55.13 110.16 2.65 54
11 03/29/2024 03:54:55 73.20, 112.22 69.84 03/29/2024 03:55:44 73.18, 112.17 69.81 2.42 49
12 03/29/2024 04:45:39 -73.18, -80.43 110.20 03/29/2024 04:46:26 -73.18, -80.51 110.21 2.51 47
13 03/29/2024 05:36:25 73.21, 86.83 69.82 03/29/2024 05:37:05 73.21, 86.89 69.81 2.17 40
14 03/29/2024 06:27:09 -73.19,-105.82 110.22 03/29/2024 06:27:47 -73.21,-105.78 110.21 2.73 38
15 03/29/2024 07:17:55 73.21, 61.44 69.80 03/29/2024 07:18:27 73.19, 61.51 69.77 3.22 32
16 03/29/2024 08:08:39 -73.20,-131.21 110.24 03/29/2024 08:09:09 -73.19,-131.17 110.25 1.61 30
17 03/29/2024 08:59:24 73.17, 36.16 69.72 03/29/2024 08:59:49 73.17, 36.12 69.72 1.10 25
18 03/29/2024 09:50:08 -73.16,-156.50 110.31 03/29/2024 09:50:31 -73.17,-156.55 110.30 2.58 23
19 03/29/2024 10:40:54 73.18, 10.76 69.71 03/29/2024 10:41:11 73.15, 10.74 69.68 3.11 17
20 03/29/2024 11:31:38 -73.16, 178.11 110.33 03/29/2024 11:31:53 -73.15, 178.06 110.34 2.09 15
21 03/29/2024 12:22:24 73.19, -14.63 69.69 03/29/2024 12:22:32 73.18, -14.54 69.68 2.94 8
22 03/29/2024 13:13:08 -73.17, 152.72 110.35 03/29/2024 13:13:14 -73.18, 152.79 110.34 2.42 6
23 03/29/2024 14:03:53 73.15, -39.91 69.61 03/29/2024 14:03:54 73.16, -39.92 69.63 2.00 1
24 03/29/2024 14:54:38 -73.18, 127.33 110.37 03/29/2024 14:54:36 -73.16, 127.40 110.39 3.04 2
25 03/29/2024 15:45:23 73.15, -65.30 69.59 03/29/2024 15:45:16 73.14, -65.30 69.59 1.20 7
26 03/29/2024 16:36:07 -73.14, 102.05 110.44 03/29/2024 16:35:58 -73.14, 102.02 110.43 1.09 9
27 03/29/2024 17:26:52 73.11, -90.58 69.52 03/29/2024 17:26:38 73.12, -90.69 69.54 3.73 14
28 03/29/2024 18:17:37 -73.15, 76.66 110.46 03/29/2024 18:17:20 -73.12, 76.64 110.48 2.70 17
29 03/29/2024 19:08:22 73.12,-115.97 69.50 03/29/2024 19:07:59 73.15,-115.96 69.54 3.76 23
30 03/29/2024 19:59:07 -73.15, 51.27 110.48 03/29/2024 19:58:41 -73.15, 51.36 110.48 3.01 26
31 03/29/2024 20:49:52 73.13,-141.36 69.48 03/29/2024 20:49:21 73.13,-141.35 69.49 0.78 31
32 03/29/2024 21:40:36 -73.11, 25.99 110.55 03/29/2024 21:40:03 -73.13, 25.98 110.53 2.36 33
33 03/29/2024 22:31:22 73.13,-166.75 69.46 03/29/2024 22:30:43 73.11,-166.73 69.45 2.63 39
34 03/29/2024 23:22:06 -73.12, 0.59 110.57 03/29/2024 23:21:25 -73.11, 0.59 110.57 0.78 41
35 03/30/2024 00:12:51 73.09, 167.96 69.39 03/30/2024 00:12:05 73.09, 167.88 69.40 2.59 46
36 03/30/2024 01:03:35 -73.08, -24.69 110.65 03/30/2024 01:02:47 -73.09, -24.79 110.62 3.74 48
37 03/30/2024 01:54:21 73.10, 142.57 69.37 03/30/2024 01:53:26 73.12, 142.61 69.40 2.66 55
38 03/30/2024 02:45:05 -73.08, -50.08 110.67 03/30/2024 02:44:09 -73.07, -50.17 110.66 3.44 56



Historial Predications of SNOs between NOAA-20 and METOP-B
